Location: Unspecified
(47.5840°N, 122.3000°W)
Time: 14:07:25
(UTC+00:00)

IRIDIUM 114 - Pass Details

Date: 18 March 2026
Orbit: 776 x 779 km, 86.4° (Epoch: 18 April)

Event Time Altitude Azimuth Distance (km) Brightness Sun altitude
Exits shadow 04:15:58 31° 70° (ENE) 1,335 5.1 -20.2°
Drops below altitude 10° 04:19:59 10° 21° (NNE) 2,342 6.8 -20.9°
Sets 04:22:33 0° 12° (NNE) 3,274 7.7 -21.3°
